Regional Weather Roundup
Issued by NWS

Home | Current Version | Previous Version | Graphics & Text | Print | Product List | Glossary On
Versions: 1 2 3 4 5 6 7 8 9 10 11 12 13 14 15 16 17 18 19 20 21 22 23 24 25 26 27 28 29 30 31 32 33 34 35 36 37 38 39 40 41 42 43 44 45 46 47 48 49 50
000
ASUS43 KMKX 270111
RWRWI

WISCONSIN REGIONAL WEATHER ROUNDUP
NATIONAL WEATHER SERVICE MILWAUKEE/SULLIVAN WI
700 PM CST WED NOV 26 2014

NOTE: "FAIR" INDICATES FEW OR NO CLOUDS BELOW 12,000 FEET WITH NO
SIGNIFICANT WEATHER AND/OR OBSTRUCTIONS TO VISIBILITY.

WIZ001-002-006>008-014>016-023>028-270200-
NORTHWEST WISCONSIN

CITY           SKY/WX    TMP DP  RH WIND       PRES   REMARKS
SUPERIOR ARPT  PTCLDY    13   4  67 N7        30.36R WCI   3
ASHLAND        CLOUDY    19  13  77 NW9       30.29R WCI   8
HAYWARD        FLURRIES  18  12  77 NW3       30.25S
SIREN          CLOUDY    20  10  65 N9        30.29S WCI   9
CUMBERLAND     FLURRIES  21  14  73 N14       30.25R WCI   8
RICE LAKE      CLOUDY    23  16  74 N7        30.25S WCI  14
CHETEK         CLOUDY    22  17  79 NW7       30.24S WCI  14
LADYSMITH      CLOUDY    23  19  83 N15       30.24R WCI  10
EAU CLAIRE     MOCLDY    23  16  74 NW7       30.23R WCI  15
MENOMONIE      PTCLDY    22  17  79 NW6       30.25R WCI  15
NEW RICHMOND   CLOUDY    22  14  72 N12       30.27S WCI  11
OSCEOLA        CLOUDY    22  13  69 N10       30.32R WCI  11
$$

WIZ003>005-009-010-017-018-270200-
NORTH CENTRAL WISCONSIN

CITY           SKY/WX    TMP DP  RH WIND       PRES   REMARKS
MANITOWISH WTR FLURRIES  19  17  90 NW7       30.15S WCI  10
ARBOR VITAE    LGT SNOW  22  19  87 NW9       30.15S WCI  11
WOODRUFF       LGT SNOW  22  19  87 NW9       30.15S WCI  11
RHINELANDER    CLOUDY    21  17  84 NW5       30.14S WCI  15
EAGLE RIVER    FLURRIES  21  17  85 CALM      30.13S
LAND O LAKES   CLOUDY    21  19  92 N8        30.15R WCI  11
PHILLIPS       CLOUDY    20  16  84 N6        30.17S WCI  12
TOMAHAWK       CLOUDY    22  18  87 CALM      30.16S
MEDFORD        CLOUDY    21  19  89 NW9       30.17S WCI  11
MERRILL        CLOUDY    23  20  90 NW5       30.16S WCI  17
$$

WIZ029-030-035-036-043>047-270200-
CENTRAL WISCONSIN

CITY           SKY/WX    TMP DP  RH WIND       PRES   REMARKS
WAUSAU         LGT SNOW  23  20  88 NW7       30.15S FOG     WCI  15
MOSINEE        LGT SNOW  23  23 100 NW6       30.17R WCI  16
MARSHFIELD     LGT SNOW  23  20  88 NW9       30.17R FOG     WCI  13
STEVENS POINT  LGT SNOW  22  19  91 W3        30.18R
WAUPACA        CLOUDY    18  16  90 CALM      30.19R FOG
WAUTOMA        CLOUDY    17  15  92 CALM      30.20R FOG
WISC RAPIDS    LGT SNOW  23  18  81 NW5       30.20R WCI  17
CAMP DOUGLAS   FLURRIES  19  19 100 W6        30.20R WCI  11
$$

WIZ011>013-019>022-031-037>040-048>050-270200-
NORTHEAST WISCONSIN

CITY           SKY/WX    TMP DP  RH WIND       PRES   REMARKS
ANTIGO         LGT SNOW  21  19  93 NW7       30.13F WCI  12
SHAWANO        CLOUDY    23  19  86 CALM      30.17S
OCONTO         CLOUDY    19  17  95 W3        30.17S
STURGEON BAY   CLOUDY    23  16  74 NW7       30.16S WCI  15
GREEN BAY      PTCLDY    16  13  88 CALM      30.17F FOG
MANITOWOC      PTCLDY    20  18  92 NW6       30.18R WCI  12
APPLETON       MOCLDY    16  16 100 NW6       30.17  WCI   7
CLINTONVILLE   CLOUDY    19  18  93 W5        30.17S FOG     WCI  13
OSHKOSH        MOCLDY    20  16  84 MISG      30.18R FOG
$$

WIZ032>034-041-042-053>061-270200-
SOUTHWEST WISCONSIN

CITY           SKY/WX    TMP DP  RH WIND       PRES   REMARKS
LA CROSSE      LGT SNOW  25  22  88 N7        30.24R FOG     WCI  17
SPARTA         LGT SNOW  25  22  91 NW6       30.23R WCI  18
VIROQUA        CLOUDY    24  23  98 NW7       30.19R WCI  16
BOSCOBEL       CLOUDY    20  18  92 CALM      30.23R FOG
PRAIRIE DU CHI CLOUDY    25  20  82 CALM      30.23R
PLATTEVILLE    MOCLDY    22  19  89 CALM      30.19S
$$

WIZ056-057-062-063-064-067-068-270200-
SOUTH CENTRAL WISCONSIN

CITY           SKY/WX    TMP DP  RH WIND       PRES   REMARKS
REEDSBURG      MOCLDY    17  16  95 CALM      30.20R FOG
BARABOO/DELLS  CLOUDY    15  13  92 CALM      30.19R FOG
LONE ROCK      CLOUDY    21  15  78 W3        30.22R HAZE
MINERAL POINT  MOCLDY    23  19  86 NW7       30.17R FOG     WCI  15
MADISON        CLOUDY    17  14  88 NW3       30.19R FOG
MIDDLETON      CLOUDY    19  17  90 N3        30.19R
WATERTOWN      MOCLDY    20  19  94 NW3       30.16S
MONROE         CLOUDY    21  19  93 N6        30.16R FOG     WCI  14
JANESVILLE     PTCLDY    21  19  93 N9        30.16R FOG     WCI  11
$$

WIZ051-052-058>065-066-070>072-270200-
SOUTHEAST WISCONSIN

CITY           SKY/WX    TMP DP  RH WIND       PRES   REMARKS
MILWAUKEE      CLOUDY    29  20  69 NW12      30.15R WCI  19
WAUKESHA       MOCLDY    21  19  93 NW7       30.16S FOG     WCI  13
MILWAUKEE/TIMM CLOUDY    27  19  74 MISG      30.16S
RACINE         CLOUDY    29  22  75 NW7       30.15S WCI  22
BURLINGTON     CLOUDY    22  19  90 NW14      30.15R FOG     WCI   9
KENOSHA        CLOUDY    28  23  81 NW9       30.13S WCI  19
FOND DU LAC    CLOUDY    20  16  84 NW7       30.18R WCI  11
SHEBOYGAN      PTCLDY    19  16  88 NW7       30.17R WCI  10
WEST BEND      MOCLDY    21  19  93 CALM      30.17R
JUNEAU         MOCLDY    18  16  91 NW3       30.19R FOG
$$

LSZ147-162-270200-
LAKE SUPERIOR

STATION/POSITION TIME  TEMP    WIND        PRES    WAVE
                       AIR SEA DIR/SP/G            HT/PER
                 (UTC) (F)     (DEG/KT/KT) (MB)    (FT/S)
DEVILS ISLAND    0100   18     340/ 19/ 22 1027.5R
PORT WING        0000   21     330/ 13/ 18 1026.1
SAXON HARBOR     0000   25     350/ 10/ 14 1024.4R
$$

LMZ867-665-643>646-270200-
LAKE MICHIGAN

STATION/POSITION TIME  TEMP    WIND        PRES    WAVE
                       AIR SEA DIR/SP/G            HT/PER
                 (UTC) (F)     (DEG/KT/KT) (MB)    (FT/S)
CHAMBERS ISLAND  0000   25     290/  3/  7 1021.7S
N MID LAKE BUOY  0050   29 42  290/  6/  8 1021.6F   1
NORTHPORT PIER   0101   27     300/  9/ 14 1021.0S
SISTER BAY       0013          340/  6/  7   N/A
ALGOMA LAKESHORE 2358             CALM       N/A
KEWAUNEE LAKESHO 0000   21     310/  2/  4 1020.6F
SHEBOYGAN LAKESH 0100   23 36  300/  9/ 11 1023.0R
PORT WASHINGTON  0000   26     340/  8/ 12 1022.4R
MILWAUKEE LAKESH 0000   30     330/  8/ 10   N/A
S MID LAKE BUOY  0050   33 42  100/  2/  6 1021.0F   1
KENOSHA   LAKESH 0100   29     320/ 10/ 14 1020.3S
$$

TC  - TEMPERATURE IN CELSIUS
VSB - VISIBILITY IN STATUTE MILES
WCI - WIND CHILL INDEX
HX  - HEAT INDEX




USA.gov is the U.S. government's official web portal to all federal, state and local government web resources and services.